| time (UTC) | temp C | wind direction | speed KPH | gust KPH | rain 1hr cm | rain 24hr cm | rain mn cm | humidity % | barometer mb |
| 20260505101827 | 16 | 205 | 3.2 | 3.2 | 0.00 | 0.00 | 0.00 | 74 | 1010.9 |
| 20260505101322 | 17 | 190 | 0.0 | 1.6 | 0.00 | 0.00 | 0.00 | 73 | 1011.2 |
| 20260505100818 | 17 | 197 | 0.0 | 1.6 | 0.00 | 0.00 | 0.00 | 72 | 1011.0 |
| 20260505100315 | 17 | 211 | 0.0 | 0.0 | 0.00 | 0.00 | 0.00 | 71 | 1010.8 |
| 20260505095810 | 17 | 215 | 1.6 | 3.2 | 0.00 | 0.00 | 0.00 | 70 | 1011.3 |
| 20260505095308 | 17 | 217 | 3.2 | 4.8 | 0.00 | 0.00 | 0.00 | 70 | 1010.8 |
| 20260505094804 | 17 | 240 | 3.2 | 4.8 | 0.00 | 0.00 | 0.00 | 70 | 1010.9 |
| 20260505094301 | 17 | 141 | 3.2 | 4.8 | 0.00 | 0.00 | 0.00 | 71 | 1010.9 |
| 20260505093756 | 17 | 218 | 1.6 | 3.2 | 0.00 | 0.00 | 0.00 | 72 | 1011.0 |
| 20260505093254 | 17 | 201 | 0.0 | 1.6 | 0.00 | 0.00 | 0.00 | 72 | 1011.1 |
| 20260505092751 | 17 | 300 | 1.6 | 1.6 | 0.00 | 0.00 | 0.00 | 72 | 1011.1 |
| 20260505092249 | 17 | 338 | 1.6 | 1.6 | 0.00 | 0.00 | 0.00 | 72 | 1011.1 |
| 20260505091746 | 17 | 182 | 0.0 | 0.0 | 0.00 | 0.00 | 0.00 | 73 | 1010.7 |
| 20260505091244 | 16 | 193 | 8.0 | 11.3 | 0.00 | 0.00 | 0.00 | 74 | 1010.7 |
| 20260505090742 | 16 | 201 | 1.6 | 3.2 | 0.00 | 0.00 | 0.00 | 75 | 1010.5 |
| 20260505090240 | 16 | 205 | 1.6 | 3.2 | 0.00 | 0.00 | 0.00 | 77 | 1010.3 |
| 20260505085737 | 15 | 193 | 0.0 | 1.6 | 0.00 | 0.00 | 0.00 | 78 | 1010.8 |
| 20260505085235 | 15 | 192 | 0.0 | 0.0 | 0.00 | 0.00 | 0.00 | 78 | 1010.8 |
| 20260505084732 | 15 | 190 | 3.2 | 4.8 | 0.00 | 0.00 | 0.00 | 79 | 1010.7 |
| 20260505084231 | 15 | 224 | 3.2 | 4.8 | 0.00 | 0.00 | 0.00 | 79 | 1010.6 |
| 20260505083728 | 15 | 189 | 1.6 | 1.6 | 0.00 | 0.00 | 0.00 | 79 | 1010.8 |
| 20260505083224 | 15 | 196 | 0.0 | 0.0 | 0.00 | 0.00 | 0.00 | 78 | 1010.9 |
| 20260505082720 | 15 | 194 | 0.0 | 0.0 | 0.00 | 0.00 | 0.00 | 78 | 1010.8 |
| 20260505082218 | 15 | 200 | 1.6 | 1.6 | 0.00 | 0.00 | 0.00 | 78 | 1010.9 |
| 20260505081713 | 15 | 210 | 0.0 | 0.0 | 0.00 | 0.00 | 0.00 | 77 | 1010.9 |
| 20260505081211 | 16 | 198 | 0.0 | 0.0 | 0.00 | 0.00 | 0.00 | 76 | 1010.7 |
| 20260505080708 | 16 | 194 | 1.6 | 1.6 | 0.00 | 0.00 | 0.00 | 76 | 1011.0 |
| 20260505080204 | 16 | 171 | 0.0 | 0.0 | 0.00 | 0.00 | 0.00 | 75 | 1010.8 |
| 20260505075700 | 16 | 191 | 0.0 | 0.0 | 0.00 | 0.00 | 0.00 | 75 | 1010.9 |
| 20260505075157 | 16 | 203 | 3.2 | 4.8 | 0.00 | 0.00 | 0.00 | 74 | 1010.8 |
| 20260505074654 | 16 | 201 | 3.2 | 3.2 | 0.00 | 0.00 | 0.00 | 75 | 1010.9 |
| 20260505074150 | 16 | 224 | 1.6 | 1.6 | 0.00 | 0.00 | 0.00 | 74 | 1010.7 |
| 20260505073648 | 16 | 220 | 0.0 | 0.0 | 0.00 | 0.00 | 0.00 | 74 | 1010.8 |
| 20260505073146 | 16 | 170 | 0.0 | 1.6 | 0.00 | 0.00 | 0.00 | 74 | 1011.0 |
| 20260505072641 | 16 | 225 | 1.6 | 1.6 | 0.00 | 0.00 | 0.00 | 74 | 1010.9 |
| 20260505072138 | 16 | 186 | 0.0 | 0.0 | 0.00 | 0.00 | 0.00 | 74 | 1010.7 |
| 20260505071634 | 15 | 205 | 0.0 | 0.0 | 0.00 | 0.00 | 0.00 | 74 | 1010.9 |
| 20260505071132 | 15 | 208 | 3.2 | 4.8 | 0.00 | 0.00 | 0.00 | 76 | 1010.7 |
| 20260505070629 | 15 | 189 | 0.0 | 0.0 | 0.00 | 0.00 | 0.00 | 76 | 1010.6 |
| 20260505070125 | 15 | 179 | 0.0 | 1.6 | 0.00 | 0.00 | 0.00 | 77 | 1010.5 |
| 20260505065621 | 14 | 181 | 0.0 | 0.0 | 0.00 | 0.00 | 0.00 | 78 | 1010.5 |
| 20260505065118 | 14 | 185 | 0.0 | 1.6 | 0.00 | 0.00 | 0.00 | 79 | 1010.5 |
| 20260505064615 | 14 | 198 | 0.0 | 0.0 | 0.00 | 0.00 | 0.00 | 79 | 1010.7 |
| 20260505064113 | 13 | 201 | 0.0 | 0.0 | 0.00 | 0.00 | 0.00 | 80 | 1010.3 |
| 20260505063610 | 13 | 169 | 1.6 | 1.6 | 0.00 | 0.00 | 0.00 | 81 | 1010.7 |
| 20260505063106 | 13 | 202 | 3.2 | 3.2 | 0.00 | 0.00 | 0.00 | 82 | 1010.6 |
| 20260505062603 | 13 | 182 | 0.0 | 0.0 | 0.00 | 0.00 | 0.00 | 82 | 1010.6 |
| 20260505062100 | 13 | 194 | 1.6 | 1.6 | 0.00 | 0.00 | 0.00 | 82 | 1010.5 |
| 20260505061557 | 13 | 178 | 1.6 | 3.2 | 0.00 | 0.00 | 0.00 | 81 | 1010.6 |
| 20260505061055 | 13 | 195 | 0.0 | 0.0 | 0.00 | 0.00 | 0.00 | 81 | 1010.8 |
| 20260505060552 | 14 | 195 | 0.0 | 0.0 | 0.00 | 0.00 | 0.00 | 81 | 1010.6 |
| 20260505060049 | 14 | 194 | 1.6 | 3.2 | 0.00 | 0.00 | 0.00 | 80 | 1010.3 |
| 20260505055544 | 14 | 196 | 0.0 | 0.0 | 0.00 | 0.00 | 0.00 | 80 | 1010.6 |
| 20260505055041 | 14 | 163 | 3.2 | 3.2 | 0.00 | 0.00 | 0.00 | 80 | 1010.8 |
| 20260505054539 | 14 | 203 | 1.6 | 3.2 | 0.00 | 0.00 | 0.00 | 79 | 1010.7 |
| 20260505054037 | 14 | 183 | 1.6 | 1.6 | 0.00 | 0.00 | 0.00 | 79 | 1010.9 |
| 20260505053533 | 14 | 207 | 1.6 | 3.2 | 0.00 | 0.00 | 0.00 | 79 | 1010.6 |
| 20260505053030 | 14 | 186 | 1.6 | 3.2 | 0.00 | 0.00 | 0.00 | 79 | 1010.8 |
| 20260505052527 | 14 | 186 | 1.6 | 3.2 | 0.00 | 0.00 | 0.00 | 79 | 1010.8 |
| 20260505052025 | 14 | 205 | 1.6 | 3.2 | 0.00 | 0.00 | 0.00 | 79 | 1010.8 |
| 20260505051521 | 14 | 187 | 8.0 | 9.7 | 0.00 | 0.00 | 0.00 | 78 | 1010.8 |
| 20260505051019 | 14 | 168 | 3.2 | 3.2 | 0.00 | 0.00 | 0.00 | 78 | 1010.9 |
| 20260505050517 | 14 | 169 | 0.0 | 0.0 | 0.00 | 0.00 | 0.00 | 78 | 1010.8 |
| 20260505041445 | 14 | 199 | 0.0 | 1.6 | 0.00 | 0.00 | 0.00 | 75 | 1010.9 |
| 20260505040942 | 15 | 197 | 0.0 | 0.0 | 0.00 | 0.00 | 0.00 | 75 | 1010.9 |
| 20260505040440 | 15 | 199 | 1.6 | 1.6 | 0.00 | 0.00 | 0.00 | 74 | 1011.0 |
| 20260505035936 | 15 | 199 | 3.2 | 4.8 | 0.00 | 0.00 | 0.00 | 74 | 1011.0 |
| 20260505035432 | 15 | 177 | 3.2 | 3.2 | 0.00 | 0.00 | 0.00 | 74 | 1011.1 |
| 20260505034930 | 15 | 197 | 3.2 | 4.8 | 0.00 | 0.00 | 0.00 | 74 | 1010.8 |
| 20260505034426 | 15 | 184 | 3.2 | 3.2 | 0.00 | 0.00 | 0.00 | 74 | 1010.9 |
| 20260505033923 | 15 | 197 | 6.4 | 6.4 | 0.00 | 0.00 | 0.00 | 73 | 1010.8 |
| 20260505033420 | 15 | 197 | 3.2 | 3.2 | 0.00 | 0.00 | 0.00 | 73 | 1010.9 |
| 20260505032918 | 15 | 196 | 4.8 | 11.3 | 0.00 | 0.00 | 0.00 | 73 | 1010.7 |
| 20260505032415 | 15 | 194 | 3.2 | 4.8 | 0.00 | 0.00 | 0.00 | 72 | 1010.9 |
| 20260505031911 | 15 | 204 | 6.4 | 6.4 | 0.00 | 0.00 | 0.00 | 72 | 1011.0 |
| 20260505031408 | 15 | 191 | 4.8 | 6.4 | 0.00 | 0.00 | 0.00 | 72 | 1010.9 |
| 20260505030905 | 15 | 202 | 4.8 | 6.4 | 0.00 | 0.00 | 0.00 | 72 | 1011.0 |
| 20260505030401 | 15 | 193 | 3.2 | 3.2 | 0.00 | 0.00 | 0.00 | 71 | 1010.8 |
| 20260505025857 | 15 | 191 | 6.4 | 6.4 | 0.00 | 0.00 | 0.00 | 71 | 1011.1 |
| 20260505025355 | 15 | 181 | 0.0 | 1.6 | 0.00 | 0.00 | 0.00 | 71 | 1011.3 |
| 20260505024854 | 15 | 176 | 1.6 | 3.2 | 0.00 | 0.00 | 0.00 | 71 | 1011.0 |
| 20260505024351 | 15 | 174 | 1.6 | 1.6 | 0.00 | 0.00 | 0.00 | 70 | 1011.3 |
| 20260505023848 | 15 | 173 | 1.6 | 3.2 | 0.00 | 0.00 | 0.00 | 70 | 1011.0 |
| 20260505023345 | 15 | 177 | 3.2 | 4.8 | 0.00 | 0.00 | 0.00 | 69 | 1011.1 |
| 20260505022842 | 15 | 183 | 1.6 | 1.6 | 0.00 | 0.00 | 0.00 | 69 | 1011.2 |
| 20260505022339 | 15 | 201 | 0.0 | 1.6 | 0.00 | 0.00 | 0.00 | 68 | 1011.1 |
| 20260505021836 | 15 | 182 | 4.8 | 9.7 | 0.00 | 0.00 | 0.00 | 68 | 1011.1 |
| 20260505021332 | 15 | 205 | 3.2 | 3.2 | 0.00 | 0.00 | 0.00 | 68 | 1011.2 |
| 20260505020828 | 16 | 187 | 3.2 | 4.8 | 0.00 | 0.00 | 0.00 | 67 | 1011.1 |
| 20260505020324 | 16 | 211 | 3.2 | 4.8 | 0.00 | 0.00 | 0.00 | 67 | 1011.0 |
| 20260505015821 | 16 | 165 | 1.6 | 1.6 | 0.00 | 0.00 | 0.00 | 66 | 1011.1 |
| 20260505015318 | 16 | 201 | 4.8 | 6.4 | 0.00 | 0.00 | 0.00 | 65 | 1011.1 |
| 20260505014815 | 16 | 195 | 3.2 | 3.2 | 0.00 | 0.00 | 0.00 | 64 | 1011.1 |
| 20260505014312 | 16 | 188 | 3.2 | 6.4 | 0.00 | 0.00 | 0.00 | 64 | 1011.2 |
| 20260505013808 | 16 | 192 | 6.4 | 9.7 | 0.00 | 0.00 | 0.00 | 64 | 1011.0 |
| 20260505013306 | 16 | 208 | 4.8 | 6.4 | 0.00 | 0.00 | 0.00 | 64 | 1011.1 |
| 20260505012804 | 16 | 171 | 1.6 | 3.2 | 0.00 | 0.00 | 0.00 | 63 | 1011.0 |
| 20260505012304 | 16 | 212 | 4.8 | 4.8 | 0.00 | 0.00 | 0.00 | 62 | 1011.0 |
| 20260505011757 | 16 | 195 | 3.2 | 4.8 | 0.00 | 0.00 | 0.00 | 61 | 1011.1 |
| 20260505011255 | 16 | 190 | 3.2 | 4.8 | 0.00 | 0.00 | 0.00 | 60 | 1011.1 |
| 20260505010750 | 17 | 198 | 4.8 | 4.8 | 0.00 | 0.00 | 0.00 | 59 | 1010.8 |
| 20260505010247 | 17 | 186 | 0.0 | 1.6 | 0.00 | 0.00 | 0.00 | 57 | 1010.6 |
| 20260505005743 | 17 | 181 | 3.2 | 3.2 | 0.00 | 0.00 | 0.00 | 55 | 1010.7 |
| 20260505005241 | 17 | 225 | 3.2 | 4.8 | 0.00 | 0.00 | 0.00 | 54 | 1010.6 |
| 20260505004738 | 18 | 187 | 3.2 | 9.7 | 0.00 | 0.00 | 0.00 | 52 | 1010.7 |
| 20260505004234 | 17 | 147 | 3.2 | 6.4 | 0.00 | 0.00 | 0.00 | 49 | 1010.6 |
| 20260505003731 | 17 | 181 | 0.0 | 1.6 | 0.00 | 0.00 | 0.00 | 49 | 1010.6 |
| 20260505003229 | 18 | 181 | 0.0 | 1.6 | 0.00 | 0.00 | 0.00 | 47 | 1010.4 |
| 20260505002725 | 18 | 192 | 1.6 | 3.2 | 0.00 | 0.00 | 0.00 | 48 | 1010.4 |
| 20260505002222 | 18 | 184 | 0.0 | 1.6 | 0.00 | 0.00 | 0.00 | 47 | 1010.3 |
| 20260505001720 | 18 | 179 | 0.0 | 1.6 | 0.00 | 0.00 | 0.00 | 46 | 1010.1 |
| 20260505001217 | 18 | 185 | 1.6 | 1.6 | 0.00 | 0.00 | 0.00 | 46 | 1010.4 |
| 20260505000714 | 18 | 180 | 0.0 | 0.0 | 0.00 | 0.00 | 0.00 | 46 | 1010.3 |
| 20260505000212 | 18 | 171 | 3.2 | 3.2 | 0.00 | 0.00 | 0.00 | 44 | 1010.1 |
| 20260504235708 | 19 | 185 | 3.2 | 3.2 | 0.00 | 0.00 | 0.00 | 44 | 1010.0 |
| 20260504235204 | 19 | 185 | 0.0 | 0.0 | 0.00 | 0.00 | 0.00 | 44 | 1010.1 |
| 20260504234702 | 20 | 181 | 0.0 | 0.0 | 0.00 | 0.00 | 0.00 | 42 | 1009.8 |
| 20260504234159 | 20 | 182 | 1.6 | 1.6 | 0.00 | 0.00 | 0.00 | 41 | 1010.0 |
| 20260504233655 | 20 | 178 | 0.0 | 0.0 | 0.00 | 0.00 | 0.00 | 42 | 1010.0 |
| 20260504233151 | 20 | 223 | 1.6 | 3.2 | 0.00 | 0.00 | 0.00 | 41 | 1010.0 |
| 20260504232649 | 20 | 190 | 6.4 | 11.3 | 0.00 | 0.00 | 0.00 | 40 | 1009.9 |
| 20260504232145 | 21 | 212 | 1.6 | 1.6 | 0.00 | 0.00 | 0.00 | 41 | 1009.7 |
| 20260504231642 | 21 | 172 | 3.2 | 3.2 | 0.00 | 0.00 | 0.00 | 40 | 1009.8 |
| 20260504231138 | 21 | 206 | 1.6 | 3.2 | 0.00 | 0.00 | 0.00 | 41 | 1009.6 |
| 20260504230635 | 21 | 208 | 0.0 | 1.6 | 0.00 | 0.00 | 0.00 | 39 | 1009.6 |
| 20260504230134 | 21 | 222 | 3.2 | 6.4 | 0.00 | 0.00 | 0.00 | 40 | 1009.9 |
| 20260504225632 | 21 | 209 | 1.6 | 1.6 | 0.00 | 0.00 | 0.00 | 40 | 1009.8 |
| 20260504225127 | 21 | 191 | 3.2 | 4.8 | 0.00 | 0.00 | 0.00 | 39 | 1009.9 |
| 20260504224624 | 21 | 179 | 1.6 | 1.6 | 0.00 | 0.00 | 0.00 | 38 | 1009.8 |
| 20260504224121 | 21 | 173 | 1.6 | 1.6 | 0.00 | 0.00 | 0.00 | 38 | 1009.8 |
| 20260504223618 | 21 | 272 | 3.2 | 4.8 | 0.00 | 0.00 | 0.00 | 37 | 1010.0 |
| 20260504223114 | 21 | 63 | 0.0 | 3.2 | 0.00 | 0.00 | 0.00 | 37 | 1009.6 |
| 20260504222611 | 21 | 305 | 3.2 | 4.8 | 0.00 | 0.00 | 0.00 | 37 | 1009.7 |
| 20260504222108 | 22 | 208 | 1.6 | 3.2 | 0.00 | 0.00 | 0.00 | 37 | 1009.9 |
| 20260504221605 | 22 | 240 | 3.2 | 3.2 | 0.00 | 0.00 | 0.00 | 37 | 1009.8 |
| 20260504221102 | 22 | 159 | 8.0 | 11.3 | 0.00 | 0.00 | 0.00 | 36 | 1009.9 |
| 20260504220558 | 22 | 190 | 1.6 | 1.6 | 0.00 | 0.00 | 0.00 | 37 | 1009.8 |
| 20260504220056 | 22 | 202 | 3.2 | 3.2 | 0.00 | 0.00 | 0.00 | 37 | 1009.7 |
| 20260504215552 | 22 | 200 | 3.2 | 4.8 | 0.00 | 0.00 | 0.00 | 37 | 1009.8 |
| 20260504215049 | 22 | 151 | 1.6 | 1.6 | 0.00 | 0.00 | 0.00 | 36 | 1009.8 |
| 20260504214545 | 22 | 256 | 3.2 | 3.2 | 0.00 | 0.00 | 0.00 | 36 | 1009.9 |
| 20260504214042 | 23 | 290 | 8.0 | 11.3 | 0.00 | 0.00 | 0.00 | 34 | 1009.7 |
| 20260504213538 | 23 | 340 | 3.2 | 4.8 | 0.00 | 0.00 | 0.00 | 35 | 1009.9 |
| 20260504213036 | 23 | 349 | 1.6 | 3.2 | 0.00 | 0.00 | 0.00 | 34 | 1009.7 |
| 20260504212531 | 23 | 231 | 1.6 | 1.6 | 0.00 | 0.00 | 0.00 | 33 | 1009.6 |
| 20260504212029 | 23 | 223 | 1.6 | 1.6 | 0.00 | 0.00 | 0.00 | 33 | 1009.9 |
| 20260504211526 | 23 | 235 | 1.6 | 1.6 | 0.00 | 0.00 | 0.00 | 36 | 1009.5 |
| 20260504211023 | 23 | 224 | 3.2 | 4.8 | 0.00 | 0.00 | 0.00 | 34 | 1009.8 |
| 20260504210520 | 23 | 209 | 3.2 | 9.7 | 0.00 | 0.00 | 0.00 | 34 | 1009.7 |
| 20260504210016 | 23 | 248 | 3.2 | 3.2 | 0.00 | 0.00 | 0.00 | 33 | 1009.6 |
| 20260504205515 | 23 | 189 | 4.8 | 4.8 | 0.00 | 0.00 | 0.00 | 33 | 1010.1 |
| 20260504205012 | 23 | 258 | 3.2 | 3.2 | 0.00 | 0.00 | 0.00 | 33 | 1009.9 |
| 20260504204510 | 24 | 195 | 3.2 | 4.8 | 0.00 | 0.00 | 0.00 | 33 | 1009.8 |
| 20260504204009 | 23 | 166 | 1.6 | 1.6 | 0.00 | 0.00 | 0.00 | 34 | 1009.9 |
| 20260504203506 | 24 | 203 | 4.8 | 6.4 | 0.00 | 0.00 | 0.00 | 33 | 1009.8 |
| 20260504203003 | 23 | 196 | 3.2 | 4.8 | 0.00 | 0.00 | 0.00 | 35 | 1009.7 |
| 20260504202459 | 23 | 217 | 6.4 | 9.7 | 0.00 | 0.00 | 0.00 | 33 | 1009.8 |
| 20260504201956 | 23 | 175 | 1.6 | 1.6 | 0.00 | 0.00 | 0.00 | 35 | 1009.9 |
| 20260504201453 | 23 | 62 | 3.2 | 4.8 | 0.00 | 0.00 | 0.00 | 33 | 1010.0 |
| 20260504200950 | 23 | 186 | 1.6 | 1.6 | 0.00 | 0.00 | 0.00 | 33 | 1009.8 |
| 20260504200447 | 23 | 213 | 11.3 | 12.9 | 0.00 | 0.00 | 0.00 | 33 | 1009.8 |
| 20260504195944 | 23 | 224 | 3.2 | 3.2 | 0.00 | 0.00 | 0.00 | 35 | 1009.9 |
| 20260504195439 | 23 | 330 | 3.2 | 3.2 | 0.00 | 0.00 | 0.00 | 34 | 1010.4 |
| 20260504194936 | 23 | 200 | 3.2 | 4.8 | 0.00 | 0.00 | 0.00 | 34 | 1010.0 |
| 20260504194432 | 22 | 161 | 1.6 | 3.2 | 0.00 | 0.00 | 0.00 | 34 | 1010.3 |
| 20260504193928 | 23 | 209 | 3.2 | 6.4 | 0.00 | 0.00 | 0.00 | 34 | 1010.2 |
| 20260504193426 | 23 | 59 | 3.2 | 3.2 | 0.00 | 0.00 | 0.00 | 36 | 1010.2 |
| 20260504192925 | 22 | 215 | 8.0 | 12.9 | 0.00 | 0.00 | 0.00 | 35 | 1010.5 |
| 20260504192421 | 22 | 163 | 6.4 | 11.3 | 0.00 | 0.00 | 0.00 | 37 | 1010.6 |
| 20260504191920 | 22 | 217 | 4.8 | 6.4 | 0.00 | 0.00 | 0.00 | 35 | 1010.4 |
| 20260504191418 | 22 | 203 | 0.0 | 0.0 | 0.00 | 0.00 | 0.00 | 35 | 1010.7 |
| 20260504190913 | 23 | 183 | 6.4 | 6.4 | 0.00 | 0.00 | 0.00 | 33 | 1010.7 |
| 20260504190409 | 22 | 205 | 1.6 | 1.6 | 0.00 | 0.00 | 0.00 | 34 | 1010.9 |
| 20260504185906 | 22 | 211 | 1.6 | 3.2 | 0.00 | 0.00 | 0.00 | 34 | 1011.0 |
| 20260504185403 | 22 | 215 | 3.2 | 4.8 | 0.00 | 0.00 | 0.00 | 34 | 1010.9 |
| 20260504184859 | 22 | 136 | 3.2 | 3.2 | 0.00 | 0.00 | 0.00 | 36 | 1010.9 |
| 20260504184355 | 22 | 223 | 1.6 | 3.2 | 0.00 | 0.00 | 0.00 | 37 | 1011.1 |
| 20260504183851 | 22 | 230 | 6.4 | 9.7 | 0.00 | 0.00 | 0.00 | 35 | 1011.3 |
| 20260504183348 | 22 | 199 | 1.6 | 1.6 | 0.00 | 0.00 | 0.00 | 37 | 1011.2 |
| 20260504182845 | 22 | 231 | 3.2 | 4.8 | 0.00 | 0.00 | 0.00 | 34 | 1011.5 |
| 20260504182343 | 22 | 165 | 3.2 | 4.8 | 0.00 | 0.00 | 0.00 | 35 | 1011.4 |
| 20260504181839 | 22 | 213 | 4.8 | 9.7 | 0.00 | 0.00 | 0.00 | 35 | 1011.5 |
| 20260504181337 | 22 | 186 | 1.6 | 3.2 | 0.00 | 0.00 | 0.00 | 36 | 1011.3 |
| 20260504180836 | 22 | 227 | 3.2 | 3.2 | 0.00 | 0.00 | 0.00 | 34 | 1011.5 |
| 20260504180334 | 22 | 145 | 0.0 | 1.6 | 0.00 | 0.00 | 0.00 | 35 | 1011.6 |
| 20260504175832 | 21 | 187 | 1.6 | 1.6 | 0.00 | 0.00 | 0.00 | 36 | 1011.8 |
| 20260504175328 | 22 | 217 | 4.8 | 6.4 | 0.00 | 0.00 | 0.00 | 37 | 1011.9 |
| 20260504174827 | 21 | 62 | 6.4 | 11.3 | 0.00 | 0.00 | 0.00 | 35 | 1012.0 |
| 20260504174324 | 21 | 226 | 4.8 | 4.8 | 0.00 | 0.00 | 0.00 | 36 | 1012.1 |
| 20260504173821 | 21 | 188 | 3.2 | 4.8 | 0.00 | 0.00 | 0.00 | 41 | 1012.2 |
| 20260504173317 | 21 | 164 | 4.8 | 6.4 | 0.00 | 0.00 | 0.00 | 37 | 1012.3 |
| 20260504172814 | 21 | 219 | 3.2 | 9.7 | 0.00 | 0.00 | 0.00 | 37 | 1012.2 |
| 20260504172311 | 21 | 227 | 1.6 | 4.8 | 0.00 | 0.00 | 0.00 | 40 | 1012.3 |
| 20260504171807 | 21 | 344 | 1.6 | 3.2 | 0.00 | 0.00 | 0.00 | 36 | 1012.3 |
| 20260504171304 | 21 | 207 | 3.2 | 3.2 | 0.00 | 0.00 | 0.00 | 39 | 1012.3 |
| 20260504170801 | 21 | 180 | 1.6 | 3.2 | 0.00 | 0.00 | 0.00 | 37 | 1012.5 |
| 20260504170258 | 21 | 205 | 9.7 | 11.3 | 0.00 | 0.00 | 0.00 | 41 | 1012.5 |
| 20260504160216 | 20 | 179 | 3.2 | 3.2 | 0.00 | 0.00 | 0.00 | 38 | 1013.6 |
| 20260504151144 | 19 | 210 | 4.8 | 6.4 | 0.00 | 0.00 | 0.00 | 44 | 1013.9 |
| 20260504150642 | 18 | 222 | 4.8 | 6.4 | 0.00 | 0.00 | 0.00 | 47 | 1013.8 |
| 20260504150138 | 18 | 180 | 3.2 | 4.8 | 0.00 | 0.00 | 0.00 | 45 | 1013.7 |
| 20260504141107 | 17 | 188 | 6.4 | 9.7 | 0.00 | 0.00 | 0.00 | 53 | 1014.1 |
| 20260504140604 | 17 | 251 | 3.2 | 4.8 | 0.00 | 0.00 | 0.00 | 54 | 1014.1 |
| 20260504130527 | 15 | 162 | 1.6 | 1.6 | 0.00 | 0.00 | 0.00 | 57 | 1014.7 |
| 20260504110415 | 10 | 178 | 1.6 | 1.6 | 0.00 | 0.00 | 0.00 | 76 | 1015.7 |